Weather in Panovo

Russia / Omsk Oblast     57°47′44″N   70°49′44″E
temp.,
°C
wind,
m/s
gust,
m/s
humid.,
%
clouds,
%
prec.,
mm/h
press.,
hPa
HPBL,
m
19 april, mon
mon1900:00−9n511605 0.0 10281170
03:00−9nnw49627 0.0 10291067
06:00−10n49595 0.0 10311104
09:00−8nnw4748100 0.0 10321445
12:00−5nnw5736100 0.0 10321902
15:00−3n5737100 0.0 10322020
18:00−3n4638100 0.0 10321925
21:00−5n25545 0.0 1033164
20 april, tue
tue2000:00−6nw24611 0.0 1033137
03:00−7wnw22651 0.0 103351
06:00−8wsw25665 0.0 1032118
09:00−3w47416 0.0 1030905
12:00+2wsw593257 0.0 10271354
15:00+5w61133100 0.0 10231783
18:00+6w61343100 0.0 10211676
21:00+4wnw5126099 0.0 1020623
21 april, wed
wed2100:00+2wnw41293100 0.3 1020718
03:00+2nnw597697 0.2 10221002
06:00−2nnw4108624 0.2 1024607
09:000n476873 0.0 1027786
12:00+4nne46515 0.0 10291185
15:00+5nne464611 0.0 10301453
18:00+5nne454870 0.0 10321452
21:00+1ne22725 0.0 103532
22 april, thu
thu2200:00−1ese11805 0.0 103615
03:00−1s22805 0.0 103828
06:00−2sse22815 0.0 103953
09:00+3s23565 0.0 1041620
12:00+6s2342100 0.0 10411324
15:00+8s3338100 0.0 10411450
18:00+8s33385 0.0 10411482
21:00+3sse25610 0.0 104282
23 april, fri
fri2300:00+1sse29720 0.0 1042177
03:000sse29730 0.0 1042189
06:00−1sse28760 0.0 1043176
09:00+5s36505 0.0 1043455
12:00+9s45370 0.0 10421302
15:00+11s45330 0.0 10411626
18:00+11s34340 0.0 10401611
21:00+5se36580 0.0 1040108